Weather past 2 weeks in Port-aux-Francais, Kerguelen Islands

Now
41 °F

Quite cool.


Feels Like: 31 °F
Forecast: 37 / 40 °F
Wind: 25 mph from West

Location: Port-Aux-Francais Iles Kerguelen

Current Time: Oct 23, 2014 at 8:58:54 PM

Latest Report: Oct 23, 2014 at 8:00 PM


Visibility: N/A

Pressure: 29.50 "Hg

Humidity: 75%

Dew point: 34 °F

Location of Port-aux-FrancaisLocation

Historic Weather in Port-aux-Francais — Graph

°F

Port-aux-Francais temperature yesterday

Maximum temperature yesterday: 46 °F (at 12:00 PM)
Minimum temperature yesterday: 37 °F (at 9:00 PM)
Average temperature yesterday: 41 °F

Past Weeks' High & Low Weather Summary

 TemperatureHumidityPressure
High49 °F (Oct 23, 10:00 AM)99% (Oct 17, 8:00 AM)30.10 "Hg (Oct 17, 8:00 AM)
Low29 °F (Oct 18, 9:00 AM)49% (Oct 9, 3:00 PM)28.88 "Hg (Oct 11, 6:00 AM)
Average38 °F74%29.60 "Hg
* Reported Oct 8 7:00 PM — Oct 23 7:00 PM, Port-aux-Francais, Weather by CustomWeather, © 2014

Note: Actual official high and low records may vary slightly from our data, if they occured in-between our weather recording intervals... More about our weather records

Advertising

Port-aux-Francais weather history for previous 24 hours

 ConditionsComfort  
Time TempWeatherWind HumidityBarometerVisibility
7:00 PM
Oct 23
42 °FQuite cool.37 mph74%29.44 "HgN/A
6:00 PM44 °FQuite cool.38 mph73%29.41 "HgN/A
5:00 PM45 °FQuite cool.44 mph71%29.38 "HgN/A
4:00 PM45 °FQuite cool.41 mph71%29.35 "HgN/A
3:00 PM47 °FCool.44 mph66%29.35 "HgN/A
2:00 PM46 °FSprinkles. Overcast.37 mph76%29.35 "Hg6 mi
1:00 PM47 °FCool.36 mph69%29.35 "HgN/A
12:00 PM48 °FCool.37 mph65%29.38 "HgN/A
11:00 AM49 °FCool.31 mph61%29.38 "HgN/A
10:00 AM49 °FCool.31 mph60%29.41 "HgN/A
9:00 AM46 °FCool.26 mph67%29.44 "HgN/A
8:00 AM45 °FOvercast.31 mph65%29.47 "Hg19 mi
7:00 AM42 °FQuite cool.26 mph74%29.47 "HgN/A
6:00 AM41 °FQuite cool.30 mph76%29.50 "HgN/A
5:00 AM40 °FQuite cool.21 mph78%29.55 "HgN/A
4:00 AM40 °FQuite cool.30 mph79%29.59 "HgN/A
3:00 AM41 °FQuite cool.31 mph75%29.60 "HgN/A
2:00 AM41 °FQuite cool.32 mph77%29.64 "HgN/A
1:00 AM41 °FQuite cool.16 mph78%29.69 "HgN/A
12:00 AM39 °FChilly.16 mph77%29.70 "HgN/A
11:00 PM
Oct 22
37 °FChilly.20 mph80%29.73 "HgN/A
10:00 PM37 °FChilly.18 mph76%29.74 "HgN/A
9:00 PM37 °FChilly.18 mph74%29.74 "HgN/A
8:00 PM38 °FChilly.20 mph70%29.76 "HgN/A
Weather by CustomWeather, © 2014

See weather overviewHow to use our weather pages